sat.trackr.live / text

‹ back to catalog

STARLINK-11140 [DTC]

NORAD 60039 · 2024-112B

PAYLOAD ACTIVE UNKNOWN

§ Identity

Operator
Country
US
Launch date
2024-06-08
Launch site
AFWTR
Launch vehicle
Mass (kg)
RCS (m²)

Purposes: comms

External: N2YO · Heavens-Above · Gunter

§ Orbital elements

Epoch: 2026-05-25T00:08:32.919648Z

Period
91.74 min
Inclination
53.1584°
Eccentricity
0.0001075
Mean motion
15.69710894 rev/d
Perigee alt
359.0 km
Apogee alt
360.4 km
Semi-major
6,737.9 km
B*
8.1663e-6
RAAN
250.3278°
Arg perigee
88.3968°
Mean anomaly
271.7173°
Rev number
11,296

§ Raw data

STARLINK-11140 [DTC]1 60039U 24112B   26145.00593657  .00000401  00000+0  81663-5 0  99942 60039  53.1584 250.3278 0001075  88.3968 271.7173 15.69710894112965

JSON: /api/v1/satellites/60039 · /tle

For live sub-satellite position, see the globe view (requires WebGL).

§ Visibility from observer

Set your observer location to see the next 7 days of passes ≥ 10°. The values pass through the URL so the page stays shareable.

No JS? Fill the form by hand. The geolocation button needs JavaScript.